Groton, CT

2:39 AM EST on December 11, 2016 (GMT -0500)
Groton-New London

Weather History for KGON - March, 2014

Change the Weather History Date:

Wednesday, March 19, 2014

  Actual Average Record
Temperature  
Mean Temperature 32 °F -  
Max Temperature 42 °F 47 °F 63 °F (2012)
Min Temperature 24 °F 28 °F 0 °F (1967)
Degree Days  
Heating Degree Days 32    
Moisture  
Dew Point 28 °F    
Average Humidity 77    
Maximum Humidity 93    
Minimum Humidity 60    
Precipitation  
Precipitation 0.03 in - - ()
Sea Level Pressure  
Sea Level Pressure 30.19 in    
Wind  
Wind Speed 11 mph (East)    
Max Wind Speed 20 mph    
Max Gust Speed 29 mph    
Visibility 9 miles    
Events Rain    
Averages and records for this station are not official NWS values.
T = Trace of Precipitation, MM = Missing Value Source: NWS Daily Summary

Daily Weather History Graph

Daily Weather History Graph

Search for Another Location

Airport or City:

Trip Planner

Search our weather history database for the weather conditions in past years. The results will help you decide how hot, cold, wet, or windy it might be!

Date:

Astronomy

Mar. 19, 2014 Rise Set
Actual Time 6:53 AM EDT 6:59 PM EDT
Civil Twilight 6:25 AM EDT 7:26 PM EDT
Nautical Twilight 5:53 AM EDT 7:59 PM EDT
Astronomical Twilight 5:20 AM EDT 8:31 PM EDT
Moon 10:17 PM EDT (3/19) 8:15 AM EDT (3/19)
Length of Visible Light 13h 01m
Length of Day
12h 05m
Waning Gibbous, 91% of the Moon is Illuminated
Mar 19
Waning Gibbous
Mar 23
Last Quarter
Mar 30
New
Apr 7
First Quarter
Apr 15
Full

Hourly Weather History & Observations

Time (EDT) Temp. Windchill Dew Point Humidity Pressure Visibility Wind Dir Wind Speed Gust Speed Precip Events Conditions
12:56 AM 27.0 °F 19.5 °F 19.9 °F 75% 30.32 in 10.0 mi NE 6.9 mph - N/A   Clear
1:56 AM 26.1 °F 18.4 °F 19.0 °F 75% 30.31 in 10.0 mi NE 6.9 mph - N/A   Clear
2:56 AM 26.1 °F 17.6 °F 19.9 °F 78% 30.30 in 10.0 mi NE 8.1 mph - N/A   Clear
3:56 AM 26.1 °F 18.4 °F 19.9 °F 78% 30.29 in 10.0 mi NNE 6.9 mph - N/A   Clear
4:56 AM 25.0 °F 17.1 °F 19.0 °F 78% 30.31 in 10.0 mi North 6.9 mph - N/A   Clear
5:56 AM 24.1 °F 16.0 °F 19.9 °F 84% 30.33 in 10.0 mi North 6.9 mph - N/A   Clear
6:56 AM 24.1 °F 17.0 °F 19.9 °F 84% 30.36 in 8.0 mi North 5.8 mph - N/A   Clear
7:56 AM 28.0 °F 20.8 °F 21.9 °F 78% 30.35 in 8.0 mi NNE 6.9 mph - N/A   Clear
8:56 AM 34.0 °F 28.0 °F 24.1 °F 67% 30.35 in 9.0 mi ENE 6.9 mph - N/A   Clear
9:56 AM 37.0 °F 28.9 °F 26.1 °F 65% 30.32 in 9.0 mi East 12.7 mph 20.7 mph N/A   Clear
10:56 AM 39.0 °F 30.3 °F 26.1 °F 60% 30.32 in 10.0 mi East 16.1 mph - N/A   Mostly Cloudy
11:56 AM 39.9 °F 31.8 °F 27.0 °F 60% 30.31 in 10.0 mi East 15.0 mph 23.0 mph N/A   Overcast
12:56 PM 41.0 °F 32.5 °F 28.9 °F 62% 30.27 in 10.0 mi East 17.3 mph 25.3 mph N/A   Overcast
1:56 PM 41.0 °F 32.5 °F 30.0 °F 65% 30.25 in 9.0 mi ESE 17.3 mph 25.3 mph N/A   Mostly Cloudy
2:56 PM 39.9 °F 32.1 °F 30.0 °F 68% 30.22 in 9.0 mi East 13.8 mph 25.3 mph N/A   Mostly Cloudy
3:56 PM 39.9 °F 31.4 °F 30.0 °F 68% 30.20 in 9.0 mi East 16.1 mph 23.0 mph N/A   Overcast
4:56 PM 39.0 °F 30.6 °F 30.9 °F 73% 30.17 in 8.0 mi ESE 15.0 mph 21.9 mph N/A   Mostly Cloudy
5:56 PM 37.9 °F 30.5 °F 30.0 °F 73% 30.15 in 8.0 mi ESE 11.5 mph 20.7 mph N/A   Mostly Cloudy
6:56 PM 37.0 °F 27.4 °F 30.9 °F 79% 30.11 in 8.0 mi East 17.3 mph 21.9 mph N/A   Overcast
7:44 PM 37.4 °F 27.8 °F 30.2 °F 75% 30.09 in 9.0 mi East 17.3 mph 25.3 mph N/A   Overcast
7:56 PM 37.0 °F 27.0 °F 32.0 °F 82% 30.08 in 9.0 mi East 18.4 mph 27.6 mph N/A   Overcast
8:05 PM 37.4 °F 27.5 °F 32.0 °F 81% 30.07 in 9.0 mi East 18.4 mph 24.2 mph N/A   Overcast
8:15 PM 37.4 °F 27.8 °F 32.0 °F 81% 30.07 in 8.0 mi East 17.3 mph 24.2 mph N/A   Overcast
8:56 PM 37.9 °F 28.9 °F 33.1 °F 83% 30.04 in 8.0 mi East 16.1 mph 24.2 mph N/A   Overcast
9:42 PM 37.4 °F 27.5 °F 35.6 °F 93% 30.00 in 8.0 mi East 18.4 mph 25.3 mph 0.00 in   Overcast
9:56 PM 37.9 °F 27.9 °F 35.1 °F 89% 29.99 in 7.0 mi East 19.6 mph 26.5 mph 0.00 in   Overcast
10:29 PM 37.4 °F 27.2 °F 35.6 °F 93% 29.96 in 7.0 mi East 19.6 mph 28.8 mph 0.00 in   Overcast
10:56 PM 39.0 °F 31.8 °F 37.0 °F 93% 29.98 in 7.0 mi East 11.5 mph 20.7 mph 0.00 in Rain Light Rain
11:56 PM 39.9 °F 32.1 °F 37.9 °F 93% 29.93 in 5.0 mi East 13.8 mph 21.9 mph 0.03 in Rain Light Rain